SB KEPS @ AMSAT $ORB14198.O Orbital Elements 14198.OSCAR
HR AMSAT ORBITAL ELEMENTS FOR OSCAR SATELLITES FROM WA5QGD FORT WORTH,TX July 17, 2014 BID: ORB14198.O TO ALL RADIO AMATEURS BT
Satellite: AO-07 Catalog number: 07530 Epoch time: 14198.47310874 Element set: 16 Inclination: 101.4735 deg RA of node: 179.3100 deg Eccentricity: 0.0011501 Arg of perigee: 234.6208 deg Mean anomaly: 240.7808 deg Mean motion: 12.53605915 rev/day Decay rate: -2.7e-07 rev/day^2 Epoch rev: 81531 Checksum: 266
Satellite: FO-29 Catalog number: 24278 Epoch time: 14198.01582490 Element set: 421 Inclination: 098.5124 deg RA of node: 207.7601 deg Eccentricity: 0.0349991 Arg of perigee: 220.0979 deg Mean anomaly: 163.5313 deg Mean motion: 13.53026469 rev/day Decay rate: -4.0e-07 rev/day^2 Epoch rev: 88470 Checksum: 313
Satellite: SO-33 Catalog number: 25509 Epoch time: 14198.43287464 Element set: 795 Inclination: 031.4326 deg RA of node: 349.0076 deg Eccentricity: 0.0349361 Arg of perigee: 019.3697 deg Mean anomaly: 010.0319 deg Mean motion: 14.29559091 rev/day Decay rate: 1.53e-06 rev/day^2 Epoch rev: 82148 Checksum: 319
Satellite: RS-22 Catalog number: 27939 Epoch time: 14198.82677188 Element set: 676 Inclination: 097.8118 deg RA of node: 011.4516 deg Eccentricity: 0.0013678 Arg of perigee: 015.2716 deg Mean anomaly: 344.8890 deg Mean motion: 14.65250430 rev/day Decay rate: 3.17e-06 rev/day^2 Epoch rev: 57721 Checksum: 331
Satellite: VO-52 Catalog number: 28650 Epoch time: 14198.59920580 Element set: 793 Inclination: 097.5606 deg RA of node: 202.0460 deg Eccentricity: 0.0026185 Arg of perigee: 060.6547 deg Mean anomaly: 299.7280 deg Mean motion: 14.85590762 rev/day Decay rate: 5.41e-06 rev/day^2 Epoch rev: 49774 Checksum: 340
Satellite: HO-68 Catalog number: 36122 Epoch time: 14198.74065461 Element set: 773 Inclination: 100.2470 deg RA of node: 249.6840 deg Eccentricity: 0.0007518 Arg of perigee: 165.4548 deg Mean anomaly: 194.6782 deg Mean motion: 13.16316728 rev/day Decay rate: -4.3e-07 rev/day^2 Epoch rev: 22045 Checksum: 309
Satellite: AO-73 Catalog number: 39444 Epoch time: 14198.14031515 Element set: 196 Inclination: 097.7708 deg RA of node: 267.7745 deg Eccentricity: 0.0062657 Arg of perigee: 144.5213 deg Mean anomaly: 216.0007 deg Mean motion: 14.78417733 rev/day Decay rate: 2.409e-05 rev/day^2 Epoch rev: 3389 Checksum: 323
Satellite: EO-79 Catalog number: 40025 Epoch time: 14198.73660954 Element set: 75 Inclination: 097.9802 deg RA of node: 093.4263 deg Eccentricity: 0.0012419 Arg of perigee: 192.7576 deg Mean anomaly: 167.3257 deg Mean motion: 14.85268428 rev/day Decay rate: 1.629e-05 rev/day^2 Epoch rev: 412 Checksum: 331
/EX SB KEPS @ AMSAT $ORB14198.D Orbital Elements 14198.MICROS
HR AMSAT ORBITAL ELEMENTS FOR THE MICROSATS FROM WA5QGD FORT WORTH,TX July 17, 2014 BID: ORB14198.D TO ALL RADIO AMATEURS BT
Satellite: UO-11 Catalog number: 14781 Epoch time: 14198.15234528 Element set: 547 Inclination: 097.8505 deg RA of node: 257.6928 deg Eccentricity: 0.0010081 Arg of perigee: 087.3643 deg Mean anomaly: 272.8724 deg Mean motion: 14.81652565 rev/day Decay rate: 2.90e-06 rev/day^2 Epoch rev: 63240 Checksum: 317
Satellite: AO-16 Catalog number: 20439 Epoch time: 14198.42797199 Element set: 69 Inclination: 098.5070 deg RA of node: 135.1962 deg Eccentricity: 0.0011966 Arg of perigee: 073.3735 deg Mean anomaly: 038.5224 deg Mean motion: 14.32368924 rev/day Decay rate: 3.2e-07 rev/day^2 Epoch rev: 27881 Checksum: 326
Satellite: LO-19 Catalog number: 20442 Epoch time: 14198.38797879 Element set: 7 Inclination: 098.4780 deg RA of node: 135.7208 deg Eccentricity: 0.0012797 Arg of perigee: 063.1431 deg Mean anomaly: 297.1060 deg Mean motion: 14.32570325 rev/day Decay rate: 2.4e-07 rev/day^2 Epoch rev: 27900 Checksum: 308
Satellite: AO-27 Catalog number: 22825 Epoch time: 14198.44070157 Element set: 716 Inclination: 098.6630 deg RA of node: 144.3626 deg Eccentricity: 0.0008142 Arg of perigee: 201.5795 deg Mean anomaly: 305.5454 deg Mean motion: 14.29730194 rev/day Decay rate: 2.3e-07 rev/day^2 Epoch rev: 8510 Checksum: 291
Satellite: IO-26 Catalog number: 22826 Epoch time: 14198.82090110 Element set: 472 Inclination: 098.6573 deg RA of node: 144.9553 deg Eccentricity: 0.0008834 Arg of perigee: 193.2728 deg Mean anomaly: 166.8223 deg Mean motion: 14.30031757 rev/day Decay rate: 9.0e-08 rev/day^2 Epoch rev: 8529 Checksum: 313
Satellite: GO-32 Catalog number: 25397 Epoch time: 14198.46725874 Element set: 395 Inclination: 098.4702 deg RA of node: 155.3294 deg Eccentricity: 0.0001215 Arg of perigee: 164.3450 deg Mean anomaly: 309.3036 deg Mean motion: 14.23451199 rev/day Decay rate: 5.0e-08 rev/day^2 Epoch rev: 83217 Checksum: 306
Satellite: NO-44 Catalog number: 26931 Epoch time: 14198.46663827 Element set: 650 Inclination: 067.0533 deg RA of node: 320.3736 deg Eccentricity: 0.0006877 Arg of perigee: 281.2893 deg Mean anomaly: 078.7435 deg Mean motion: 14.30131231 rev/day Decay rate: -4.1e-07 rev/day^2 Epoch rev: 66793 Checksum: 315
Satellite: SO-50 Catalog number: 27607 Epoch time: 14198.28045621 Element set: 449 Inclination: 064.5569 deg RA of node: 140.6087 deg Eccentricity: 0.0051324 Arg of perigee: 002.0227 deg Mean anomaly: 358.1072 deg Mean motion: 14.73826055 rev/day Decay rate: 3.42e-06 rev/day^2 Epoch rev: 62191 Checksum: 289
Satellite: CO-55 Catalog number: 27844 Epoch time: 14197.96982030 Element set: 972 Inclination: 098.6981 deg RA of node: 206.3123 deg Eccentricity: 0.0009881 Arg of perigee: 182.2748 deg Mean anomaly: 207.8854 deg Mean motion: 14.21526994 rev/day Decay rate: 1.04e-06 rev/day^2 Epoch rev: 57281 Checksum: 343
Satellite: CO-57 Catalog number: 27848 Epoch time: 14197.51253795 Element set: 912 Inclination: 098.7077 deg RA of node: 205.5885 deg Eccentricity: 0.0009624 Arg of perigee: 190.2067 deg Mean anomaly: 323.3038 deg Mean motion: 14.21211095 rev/day Decay rate: 1.16e-06 rev/day^2 Epoch rev: 57266 Checksum: 321
Satellite: AO-51 Catalog number: 28375 Epoch time: 14198.40274299 Element set: 888 Inclination: 098.2514 deg RA of node: 144.2868 deg Eccentricity: 0.0081850 Arg of perigee: 260.7462 deg Mean anomaly: 098.4464 deg Mean motion: 14.41403560 rev/day Decay rate: 4.3e-07 rev/day^2 Epoch rev: 52825 Checksum: 329
Satellite: CP3 Catalog number: 31129 Epoch time: 14197.93798442 Element set: 797 Inclination: 097.9355 deg RA of node: 174.4169 deg Eccentricity: 0.0096784 Arg of perigee: 278.2288 deg Mean anomaly: 101.1157 deg Mean motion: 14.54753326 rev/day Decay rate: 2.74e-06 rev/day^2 Epoch rev: 38436 Checksum: 353
Satellite: CO-65 Catalog number: 32785 Epoch time: 14198.13490733 Element set: 3 Inclination: 097.6976 deg RA of node: 248.4455 deg Eccentricity: 0.0015278 Arg of perigee: 092.6077 deg Mean anomaly: 290.5194 deg Mean motion: 14.85388928 rev/day Decay rate: 5.55e-06 rev/day^2 Epoch rev: 33647 Checksum: 356
Satellite: PRISM Catalog number: 33493 Epoch time: 14198.77866992 Element set: 111 Inclination: 098.2507 deg RA of node: 015.7338 deg Eccentricity: 0.0017547 Arg of perigee: 349.8289 deg Mean anomaly: 010.2539 deg Mean motion: 14.89624777 rev/day Decay rate: 2.867e-05 rev/day^2 Epoch rev: 29673 Checksum: 360
Satellite: SOHLA-1 Catalog number: 33496 Epoch time: 14198.11911718 Element set: 403 Inclination: 098.1731 deg RA of node: 319.1283 deg Eccentricity: 0.0007469 Arg of perigee: 141.5095 deg Mean anomaly: 271.1569 deg Mean motion: 14.70839135 rev/day Decay rate: 1.54e-06 rev/day^2 Epoch rev: 29391 Checksum: 308
Satellite: TISAT-1 Catalog number: 36799 Epoch time: 14198.79441585 Element set: 373 Inclination: 098.0182 deg RA of node: 291.0235 deg Eccentricity: 0.0012624 Arg of perigee: 217.0670 deg Mean anomaly: 142.9594 deg Mean motion: 14.85802538 rev/day Decay rate: 2.498e-05 rev/day^2 Epoch rev: 21726 Checksum: 330
Satellite: STUDSAT Catalog number: 36801 Epoch time: 14198.82495279 Element set: 855 Inclination: 098.0355 deg RA of node: 299.7058 deg Eccentricity: 0.0009350 Arg of perigee: 187.4057 deg Mean anomaly: 287.2746 deg Mean motion: 14.97231707 rev/day Decay rate: 4.154e-05 rev/day^2 Epoch rev: 21771 Checksum: 341
Satellite: ALMASAT-1 Catalog number: 38078 Epoch time: 14198.48632323 Element set: 84 Inclination: 069.4691 deg RA of node: 346.1110 deg Eccentricity: 0.0588353 Arg of perigee: 351.4355 deg Mean anomaly: 058.9744 deg Mean motion: 14.51672952 rev/day Decay rate: 1.3108e-04 rev/day^2 Epoch rev: 12603 Checksum: 314
Satellite: XATCOBEO Catalog number: 38082 Epoch time: 14198.86105414 Element set: 409 Inclination: 069.4309 deg RA of node: 228.5573 deg Eccentricity: 0.0164647 Arg of perigee: 285.8621 deg Mean anomaly: 129.1712 deg Mean motion: 15.69168265 rev/day Decay rate: 2.08293e-03 rev/day^2 Epoch rev: 12918 Checksum: 332
Satellite: CUBEBUG-1 Catalog number: 39153 Epoch time: 14198.75990813 Element set: 304 Inclination: 098.0419 deg RA of node: 279.0005 deg Eccentricity: 0.0016835 Arg of perigee: 251.8555 deg Mean anomaly: 108.0794 deg Mean motion: 14.77792146 rev/day Decay rate: 1.379e-05 rev/day^2 Epoch rev: 6607 Checksum: 327
Satellite: ESTCUBE-1 Catalog number: 39161 Epoch time: 14198.78452123 Element set: 295 Inclination: 098.0972 deg RA of node: 279.4584 deg Eccentricity: 0.0008643 Arg of perigee: 304.6173 deg Mean anomaly: 055.4188 deg Mean motion: 14.70059991 rev/day Decay rate: 1.049e-05 rev/day^2 Epoch rev: 6409 Checksum: 329
Satellite: DUCHIFAT-1 Catalog number: 40021 Epoch time: 14198.80202785 Element set: 77 Inclination: 097.9816 deg RA of node: 093.5027 deg Eccentricity: 0.0013552 Arg of perigee: 193.1174 deg Mean anomaly: 166.9684 deg Mean motion: 14.85389248 rev/day Decay rate: 2.206e-05 rev/day^2 Epoch rev: 412 Checksum: 303
Satellite: NANOSATCBR1 Catalog number: 40024 Epoch time: 14198.66898208 Element set: 73 Inclination: 097.9812 deg RA of node: 093.3586 deg Eccentricity: 0.0012377 Arg of perigee: 192.3646 deg Mean anomaly: 167.7179 deg Mean motion: 14.85292748 rev/day Decay rate: 2.101e-05 rev/day^2 Epoch rev: 410 Checksum: 317
